SKYNET 4C 1 20776U 90079A 21060.18402615 .00000125 00000-0 00000-0 0 9991 2 20776 13.9234 3.7652 0003077 343.5641 271.6169 1.00278760111491 EUTELSAT 2-F1 1 20777U 90079B 21060.37170535 -.00000082 00000-0 00000-0 0 9999 2 20777 14.6765 12.8412 0002279 323.4184 227.3782 0.99343663 91551